GW5111 Weather Reports


time (UTC)temp
C
wind
direction
speed
KPH
gust
KPH
rain 1hr
cm
rain 24hr
cm
rain mn
cm
humidity
%
barometer
mb
20260906111343 18 41 3.2 3.2 0.00 0.00 0.00 99 1017.0
20260906110838 18 80 1.6 4.8 0.00 0.00 0.00 99 1017.0
20260906110334 18 73 3.2 4.8 0.00 0.00 0.00 99 1017.0
20260906105833 18 78 3.2 3.2 0.00 0.00 0.00 99 1016.9
20260906105329 18 70 1.6 1.6 0.00 0.00 0.00 99 1017.0
20260906104824 18 77 1.6 3.2 0.00 0.00 0.00 99 1016.9
20260906104323 18 95 0.0 1.6 0.00 0.00 0.00 99 1017.0
20260906103822 18 103 1.6 3.2 0.00 0.00 0.00 99 1016.9
20260906103320 18 93 1.6 1.6 0.00 0.00 0.00 99 1016.9
20260906102816 18 82 1.6 4.8 0.00 0.00 0.00 99 1016.9
20260906102315 18 49 3.2 3.2 0.00 0.00 0.00 99 1016.7
20260906101811 18 86 1.6 1.6 0.00 0.00 0.00 99 1016.6
20260906101306 18 13 0.0 0.0 0.00 0.00 0.00 99 1016.7
20260906100801 18 342 0.0 1.6 0.00 0.00 0.00 99 1016.9
20260906100300 18 5 3.2 3.2 0.00 0.00 0.00 99 1016.7
20260906095756 18 338 3.2 3.2 0.00 0.00 0.00 99 1016.4
20260906095251 18 15 0.0 1.6 0.00 0.00 0.00 99 1016.6
20260906094750 18 6 1.6 1.6 0.00 0.00 0.00 99 1016.5
20260906094245 18 35 1.6 1.6 0.00 0.00 0.00 99 1016.4
20260906093741 18 276 0.0 0.0 0.00 0.00 0.00 99 1016.5
20260906093237 18 290 0.0 1.6 0.00 0.00 0.00 99 1016.3
20260906092732 18 92 0.0 0.0 0.00 0.00 0.00 99 1016.2
20260906092232 18 92 0.0 0.0 0.00 0.00 0.00 99 1016.2
20260906091728 18 92 1.6 1.6 0.00 0.00 0.00 99 1016.4
20260906091224 18 57 0.0 0.0 0.00 0.00 0.00 99 1016.2
20260906090720 18 274 0.0 0.0 0.00 0.00 0.00 99 1016.3
20260906090219 18 276 1.6 3.2 0.00 0.00 0.00 99 1016.4
20260906085718 18 293 1.6 1.6 0.00 0.00 0.00 99 1016.2
20260906085217 18 5 1.6 1.6 0.00 0.00 0.00 99 1016.3
20260906084713 18 5 1.6 1.6 0.00 0.00 0.00 99 1016.3
20260906084212 18 4 1.6 3.2 0.00 0.00 0.00 99 1016.3
20260906083708 18 265 1.6 3.2 0.00 0.00 0.00 99 1016.4
20260906083203 18 264 1.6 3.2 0.00 0.00 0.00 99 1016.3
20260906082658 18 264 0.0 0.0 0.00 0.00 0.00 99 1016.7
20260906082153 18 264 1.6 1.6 0.00 0.00 0.00 99 1016.5
20260906081649 18 264 1.6 1.6 0.00 0.00 0.00 99 1016.6
20260906081144 18 264 0.0 0.0 0.00 0.00 0.00 99 1016.5
20260906080640 18 264 0.0 0.0 0.00 0.00 0.00 99 1016.6
20260906080136 18 264 1.6 3.2 0.00 0.00 0.00 99 1016.5
20260906075636 18 258 1.6 3.2 0.00 0.00 0.00 99 1016.5
20260906075130 17 238 0.0 0.0 0.00 0.00 0.00 99 1016.4
20260906074626 18 238 1.6 1.6 0.00 0.00 0.00 99 1016.4
20260906074125 17 207 0.0 0.0 0.00 0.00 0.00 99 1016.4
20260906073620 17 178 0.0 0.0 0.00 0.00 0.00 99 1016.5
20260906073115 17 178 0.0 0.0 0.00 0.00 0.00 99 1016.5
20260906072611 18 91 1.6 1.6 0.00 0.00 0.00 99 1016.3
20260906072107 18 115 0.0 1.6 0.00 0.00 0.00 99 1016.5
20260906071603 18 136 0.0 0.0 0.00 0.00 0.00 99 1016.5
20260906071102 17 178 0.0 0.0 0.00 0.00 0.00 99 1016.4
20260906070559 18 178 0.0 1.6 0.00 0.00 0.00 99 1016.6
20260906070054 18 171 0.0 0.0 0.00 0.00 0.00 99 1016.5
20260906065554 18 104 0.0 0.0 0.00 0.00 0.00 99 1016.5
20260906065050 18 77 0.0 0.0 0.00 0.00 0.00 99 1016.5
20260906064545 18 35 0.0 1.6 0.00 0.00 0.00 99 1016.5
20260906064040 18 36 1.6 3.2 0.00 0.00 0.00 99 1016.7
20260906063535 18 89 0.0 3.2 0.00 0.00 0.00 99 1016.7
20260906063032 18 76 1.6 3.2 0.00 0.00 0.00 99 1016.7
20260906062527 18 61 0.0 3.2 0.00 0.00 0.00 99 1016.7
20260906062021 18 134 0.0 0.0 0.00 0.00 0.00 99 1017.0
20260906061517 18 134 0.0 0.0 0.00 0.00 0.00 99 1017.0
20260906061016 18 134 0.0 1.6 0.00 0.00 0.00 99 1016.9
20260906060513 18 112 0.0 0.0 0.00 0.00 0.00 99 1017.2
20260906060010 18 20 0.0 4.8 0.00 0.00 0.00 99 1017.0
20260906055506 18 31 3.2 6.4 0.00 0.00 0.00 99 1017.0
20260906055001 18 55 3.2 9.7 0.00 0.00 0.00 99 1017.0
20260906054500 18 71 4.8 4.8 0.00 0.00 0.00 99 1016.8
20260906053956 18 49 3.2 9.7 0.00 0.00 0.00 99 1017.2
20260906053452 18 76 3.2 9.7 0.00 0.00 0.00 99 1016.9
20260906052948 19 42 4.8 11.3 0.00 0.00 0.00 99 1017.0
20260906052444 19 50 6.4 9.7 0.00 0.00 0.00 99 1016.9
20260906051940 19 52 3.2 6.4 0.00 0.00 0.00 99 1017.2
20260906051435 19 12 6.4 9.7 0.00 0.00 0.00 99 1016.9
20260906050931 19 32 3.2 9.7 0.00 0.00 0.00 99 1017.0
20260906050431 19 40 6.4 9.7 0.00 0.00 0.00 99 1016.9
20260906045930 19 60 4.8 11.3 0.00 0.00 0.00 99 1016.9
20260906045429 19 31 6.4 9.7 0.00 0.00 0.00 99 1016.7
20260906044926 19 27 4.8 9.7 0.00 0.00 0.00 99 1016.8
20260906044425 19 70 6.4 6.4 0.00 0.00 0.00 99 1016.8
20260906043921 19 24 3.2 6.4 0.00 0.00 0.00 99 1016.8
20260906043417 19 87 6.4 9.7 0.00 0.00 0.00 99 1016.9
20260906042913 19 33 6.4 11.3 0.00 0.00 0.00 99 1016.9
20260906042412 19 40 6.4 6.4 0.00 0.00 0.00 98 1016.8
20260906041907 19 68 8.0 9.7 0.00 0.00 0.00 98 1017.0
20260906041403 19 112 4.8 6.4 0.00 0.00 0.00 98 1017.0
20260906040902 19 71 6.4 6.4 0.00 0.00 0.00 98 1017.2
20260906040357 19 58 4.8 9.7 0.00 0.00 0.00 98 1017.3
20260906035853 19 59 3.2 6.4 0.00 0.43 0.43 97 1017.3
20260906035348 19 34 4.8 6.4 0.00 0.43 0.43 97 1017.4
20260906034843 20 38 3.2 4.8 0.00 0.43 0.43 96 1017.5
20260906034338 20 33 4.8 4.8 0.00 0.43 0.43 96 1017.6
20260906033834 20 3 3.2 6.4 0.00 0.43 0.43 95 1017.5
20260906033333 20 53 6.4 6.4 0.00 0.43 0.43 95 1017.5
20260906032830 20 47 4.8 11.3 0.00 0.43 0.43 95 1017.5
20260906032325 20 47 1.6 4.8 0.00 0.43 0.43 96 1017.7
20260906031820 20 8 4.8 6.4 0.00 0.43 0.43 96 1017.6
20260906031316 20 33 3.2 4.8 0.00 0.43 0.43 96 1017.8
20260906030815 20 25 4.8 6.4 0.00 0.43 0.43 95 1017.7
20260906030311 20 8 3.2 6.4 0.00 0.43 0.43 95 1017.6
20260906025810 20 8 3.2 4.8 0.00 0.43 0.43 95 1018.0
20260906025306 20 27 6.4 9.7 0.00 0.43 0.43 94 1017.7
20260906024804 20 51 6.4 11.3 0.00 0.43 0.43 94 1017.7
20260906024303 20 20 3.2 6.4 0.00 0.43 0.43 95 1017.7
20260906023759 20 15 4.8 6.4 0.00 0.43 0.43 95 1017.8
20260906023254 20 12 6.4 9.7 0.00 0.43 0.43 95 1017.7
20260906022749 20 13 3.2 9.7 0.00 0.43 0.43 95 1017.9
20260906022244 20 16 3.2 6.4 0.00 0.43 0.43 95 1017.9
20260906021741 20 352 4.8 6.4 0.00 0.43 0.43 95 1017.9
20260906021240 20 47 3.2 9.7 0.00 0.43 0.43 95 1017.9
20260906020735 20 23 1.6 4.8 0.00 0.43 0.43 95 1017.7
20260906020234 20 29 4.8 6.4 0.00 0.43 0.43 95 1017.8
20260906015729 20 25 1.6 6.4 0.00 0.43 0.43 95 1017.7
20260906015227 20 40 3.2 6.4 0.00 0.43 0.43 95 1017.9
20260906014722 20 42 4.8 4.8 0.00 0.43 0.43 95 1017.8
20260906014218 20 38 3.2 9.7 0.00 0.43 0.43 95 1017.8
20260906013714 20 59 1.6 6.4 0.00 0.43 0.43 95 1017.7
20260906013214 20 359 1.6 4.8 0.00 0.43 0.43 95 1017.8
20260906012710 20 18 6.4 9.7 0.00 0.43 0.43 95 1017.8
20260906012209 20 4 1.6 4.8 0.00 0.43 0.43 94 1017.6
20260906011705 20 26 3.2 4.8 0.00 0.43 0.43 95 1017.4
20260906011159 20 0 3.2 6.4 0.00 0.43 0.43 95 1017.5
20260906010655 20 354 3.2 4.8 0.00 0.43 0.43 95 1017.3
20260906010151 20 9 1.6 4.8 0.00 0.43 0.43 94 1017.2
20260906005650 20 15 8.0 9.7 0.00 0.43 0.43 94 1017.2
20260906005150 20 22 6.4 6.4 0.00 0.43 0.43 94 1017.0
20260906004649 20 26 3.2 12.9 0.00 0.43 0.43 93 1017.3
20260906004144 20 22 4.8 6.4 0.00 0.43 0.43 93 1017.0
20260906003639 20 21 8.0 11.3 0.00 0.43 0.43 93 1017.0
20260906003135 20 21 6.4 6.4 0.00 0.43 0.43 92 1016.9
20260906002630 20 325 6.4 11.3 0.00 0.43 0.43 92 1016.9
20260906002125 20 23 9.7 11.3 0.00 0.43 0.43 92 1016.8
20260906001620 20 53 4.8 9.7 0.00 0.43 0.43 91 1016.9
20260906001119 20 39 4.8 11.3 0.00 0.43 0.43 91 1017.2
20260906000616 20 50 4.8 9.7 0.00 0.43 0.43 91 1017.2
20260906000111 20 28 6.4 6.4 0.00 0.43 0.43 91 1016.8
20260905235610 20 355 8.0 9.7 0.00 0.43 0.43 91 1017.0
20260905235105 20 80 6.4 6.4 0.00 0.43 0.43 90 1016.9
20260905234600 21 355 8.0 11.3 0.00 0.43 0.43 90 1017.0
20260905234055 21 18 3.2 9.7 0.00 0.43 0.43 89 1017.2
20260905233555 21 1 3.2 6.4 0.00 0.43 0.43 88 1016.8
20260905233050 21 10 6.4 9.7 0.00 0.43 0.43 88 1016.9
20260905232545 21 337 6.4 12.9 0.00 0.43 0.43 87 1016.9
20260905232041 21 44 4.8 12.9 0.00 0.43 0.43 86 1017.2
20260905231536 21 337 3.2 11.3 0.00 0.43 0.43 86 1017.3
20260905231032 22 49 4.8 11.3 0.00 0.43 0.43 86 1017.2
20260905230531 22 327 9.7 12.9 0.00 0.43 0.43 84 1017.4
20260905230030 22 350 3.2 4.8 0.00 0.43 0.43 84 1017.2
20260905225525 22 29 4.8 4.8 0.00 0.43 0.43 84 1017.0
20260905225020 22 13 6.4 9.7 0.00 0.43 0.43 83 1017.3
20260905224515 22 348 9.7 11.3 0.00 0.43 0.43 83 1017.5
20260905224014 23 16 8.0 11.3 0.00 0.43 0.43 82 1017.3
20260905223512 23 13 6.4 11.3 0.00 0.43 0.43 82 1017.3
20260905223008 23 9 4.8 12.9 0.00 0.43 0.43 82 1017.2
20260905222507 23 42 3.2 6.4 0.00 0.43 0.43 83 1017.2
20260905222003 23 333 6.4 9.7 0.00 0.43 0.43 83 1017.3
20260905221459 23 40 8.0 11.3 0.00 0.43 0.43 82 1017.0
20260905220955 23 11 6.4 9.7 0.00 0.43 0.43 83 1016.9
20260905220451 23 67 12.9 14.5 0.00 0.43 0.43 81 1016.8
20260905215950 23 84 9.7 14.5 0.00 0.43 0.43 81 1016.9
20260905215446 23 16 9.7 11.3 0.00 0.43 0.43 79 1016.7
20260905214942 24 22 8.0 14.5 0.00 0.43 0.43 80 1016.6
20260905214437 25 35 9.7 14.5 0.00 0.43 0.43 77 1016.6
20260905213937 25 311 6.4 11.3 0.00 0.43 0.43 81 1016.6
20260905213434 25 33 8.0 9.7 0.00 0.43 0.43 77 1016.6
20260905212929 25 37 6.4 20.9 0.00 0.43 0.43 80 1016.5
20260905212424 25 22 4.8 12.9 0.00 0.43 0.43 78 1016.3
20260905211922 25 25 9.7 14.5 0.00 0.43 0.43 79 1016.3
20260905211419 25 45 8.0 12.9 0.00 0.43 0.43 79 1016.5
20260905210915 25 62 9.7 14.5 0.00 0.43 0.43 76 1016.3
20260905210414 25 27 6.4 9.7 0.00 0.43 0.43 77 1016.4
20260905205914 25 359 6.4 11.3 0.00 0.43 0.43 78 1016.4
20260905205409 25 357 11.3 14.5 0.00 0.43 0.43 77 1016.5
20260905204908 25 40 4.8 12.9 0.00 0.43 0.43 79 1016.4
20260905204404 24 339 6.4 12.9 0.00 0.43 0.43 80 1016.4
20260905203903 25 45 8.0 11.3 0.00 0.43 0.43 79 1016.3
20260905203358 24 44 9.7 17.7 0.00 0.43 0.43 78 1016.5
20260905202854 24 66 12.9 14.5 0.00 0.43 0.43 79 1016.4
20260905202348 25 21 9.7 17.7 0.00 0.43 0.43 78 1016.4
20260905201844 24 44 4.8 11.3 0.00 0.43 0.43 79 1016.3
20260905201340 24 15 4.8 12.9 0.00 0.43 0.43 79 1016.5
20260905200833 24 74 11.3 12.9 0.00 0.43 0.43 79 1016.6
20260905200330 24 42 6.4 17.7 0.00 0.43 0.43 76 1016.3
20260905195828 24 21 4.8 17.7 0.00 0.43 0.43 78 1016.5
20260905195323 24 77 6.4 11.3 0.00 0.43 0.43 79 1016.7
20260905194819 24 54 16.1 20.9 0.00 0.43 0.43 79 1016.5
20260905194318 24 25 8.0 16.1 0.00 0.43 0.43 77 1016.7
20260905193817 25 333 9.7 17.7 0.00 0.43 0.43 79 1016.8
20260905193313 25 66 12.9 16.1 0.00 0.43 0.43 79 1016.8
20260905192808 24 359 4.8 11.3 0.00 0.43 0.43 83 1016.8
20260905192306 24 19 8.0 14.5 0.00 0.43 0.43 81 1016.9
20260905191803 24 54 4.8 17.7 0.00 0.43 0.43 79 1016.9
20260905191303 24 40 9.7 12.9 0.00 0.43 0.43 81 1016.8
20260905190801 23 327 3.2 17.7 0.00 0.43 0.43 82 1017.2
20260905190300 24 346 14.5 16.1 0.00 0.43 0.43 80 1017.3
20260905185759 25 357 9.7 16.1 0.00 0.43 0.43 77 1017.3
20260905185255 24 35 4.8 14.5 0.00 0.43 0.43 83 1017.5
20260905184754 24 41 8.0 12.9 0.00 0.43 0.43 80 1017.5
20260905184247 25 314 3.2 14.5 0.00 0.43 0.43 83 1017.4
20260905183741 24 330 3.2 12.9 0.00 0.43 0.43 80 1017.4
20260905183237 23 351 9.7 16.1 0.00 0.43 0.43 77 1017.4
20260905182736 24 60 4.8 9.7 0.00 0.43 0.43 80 1017.5
20260905182236 23 10 9.7 16.1 0.00 0.43 0.43 79 1017.6
20260905181731 23 31 3.2 6.4 0.00 0.43 0.43 84 1017.6
20260905181230 23 10 6.4 14.5 0.00 0.43 0.43 82 1017.7
20260905180725 23 48 9.7 17.7 0.00 0.43 0.43 82 1017.7
20260905180220 23 61 9.7 12.9 0.00 0.43 0.43 86 1018.0
20260905175720 22 46 6.4 12.9 0.00 0.43 0.43 91 1018.0
20260905175215 23 53 9.7 11.3 0.00 0.43 0.43 91 1018.0
20260905174710 22 50 6.4 9.7 0.00 0.43 0.43 91 1018.3
20260905174206 22 34 3.2 4.8 0.00 0.43 0.43 92 1018.0
20260905173702 22 326 4.8 6.4 0.00 0.43 0.43 90 1018.0
20260905173157 22 288 8.0 12.9 0.00 0.43 0.43 89 1018.1
20260905172657 22 28 9.7 12.9 0.00 0.43 0.43 91 1018.4
20260905172151 22 335 3.2 6.4 0.00 0.43 0.43 93 1018.1
20260905171647 22 324 4.8 4.8 0.00 0.43 0.43 92 1018.3
20260905171143 21 297 4.8 6.4 0.00 0.43 0.43 93 1018.1
20260905170640 21 300 4.8 9.7 0.00 0.43 0.43 94 1018.1
20260905170135 21 321 6.4 12.9 0.00 0.43 0.43 95 1018.3
20260905165635 21 280 9.7 12.9 0.00 0.43 0.43 94 1018.4
20260905165130 21 311 6.4 9.7 0.00 0.43 0.43 95 1018.1
20260905164625 21 311 11.3 14.5 0.00 0.43 0.43 95 1018.3
20260905164124 21 289 11.3 12.9 0.00 0.43 0.43 96 1018.0
20260905163620 20 309 8.0 14.5 0.00 0.43 0.43 97 1018.3
20260905163116 21 287 6.4 11.3 0.00 0.43 0.43 98 1018.4
20260905162613 21 273 6.4 9.7 0.00 0.43 0.43 97 1018.5
20260905162111 21 282 3.2 6.4 0.00 0.43 0.43 97 1018.1
20260905161611 21 208 1.6 4.8 0.00 0.43 0.43 97 1018.5
20260905161110 20 276 4.8 11.3 0.00 0.43 0.43 98 1018.4
20260905160609 20 279 6.4 9.7 0.00 0.43 0.43 98 1018.8
20260905160109 20 291 3.2 3.2 0.00 0.43 0.43 98 1018.9
20260905155604 20 275 4.8 6.4 0.00 0.43 0.43 97 1019.2
20260905155102 20 298 3.2 3.2 0.00 0.43 0.43 96 1019.2
20260905154557 20 8 0.0 3.2 0.00 0.43 0.43 97 1019.4
20260905154052 20 20 0.0 4.8 0.00 0.43 0.43 97 1019.4
20260905153548 20 62 3.2 6.4 0.00 0.43 0.43 98 1019.6
20260905153048 20 55 4.8 9.7 0.00 0.43 0.43 98 1019.5
20260905152543 20 80 6.4 11.3 0.00 0.43 0.43 98 1019.5
20260905152038 20 17 6.4 14.5 0.00 0.43 0.43 98 1019.6
20260905151533 20 25 8.0 14.5 0.00 0.43 0.43 97 1019.6
20260905151028 20 56 8.0 16.1 0.00 0.43 0.43 98 1019.8
20260905150523 20 70 8.0 14.5 0.00 0.43 0.43 98 1019.8
20260905150022 20 62 9.7 14.5 0.00 0.43 0.43 99 1019.8
20260905145521 19 357 6.4 16.1 0.00 0.43 0.43 99 1019.7
20260905145020 19 340 8.0 9.7 0.00 0.43 0.43 99 1019.8
20260905144515 18 1 3.2 9.7 0.00 0.43 0.43 99 1019.6
20260905144014 18 60 6.4 9.7 0.00 0.43 0.43 99 1019.5
20260905143514 18 45 6.4 12.9 0.00 0.43 0.43 99 1019.5
20260905143009 18 35 11.3 14.5 0.18 0.43 0.43 99 1019.7
20260905142507 18 47 12.9 20.9 0.18 0.43 0.43 99 1019.9
20260905142004 18 52 6.4 16.1 0.30 0.41 0.41 99 1019.9
20260905141503 18 77 11.3 17.7 1.50 0.41 0.41 99 1019.8
20260905141000 18 79 14.5 22.5 2.11 0.36 0.36 99 1019.5
20260905140454 19 50 11.3 20.9 0.61 0.10 0.10 99 1019.6
20260905135953 20 86 24.1 33.8 0.00 0.00 0.00 96 1019.8
20260905135449 21 25 4.8 11.3 0.00 0.00 0.00 95 1019.5
20260905134944 21 4 6.4 12.9 0.00 0.00 0.00 95 1018.8
20260905134443 21 4 6.4 11.3 0.00 0.00 0.00 95 1018.7
20260905133942 21 19 12.9 20.9 0.00 0.00 0.00 95 1018.7
20260905133438 21 338 8.0 11.3 0.00 0.00 0.00 95 1018.7
20260905132937 22 345 6.4 11.3 0.00 0.00 0.00 94 1018.6
20260905132433 22 319 9.7 16.1 0.00 0.00 0.00 94 1018.7
20260905131927 22 351 9.7 16.1 0.00 0.00 0.00 93 1018.7
20260905131424 22 338 8.0 16.1 0.00 0.00 0.00 92 1018.8
20260905130924 22 4 14.5 17.7 0.00 0.00 0.00 91 1018.7
20260905130424 22 7 3.2 9.7 0.00 0.00 0.00 92 1018.6
20260905125923 22 339 6.4 11.3 0.00 0.00 0.00 91 1018.6
20260905125418 22 345 11.3 12.9 0.00 0.00 0.00 91 1018.6
20260905124914 22 309 8.0 12.9 0.00 0.00 0.00 91 1018.5
20260905124410 22 347 9.7 14.5 0.00 0.00 0.00 92 1018.4
20260905123910 22 353 9.7 14.5 0.00 0.00 0.00 92 1018.7
20260905123407 22 324 4.8 12.9 0.00 0.00 0.00 92 1018.7
20260905122902 22 357 6.4 12.9 0.00 0.00 0.00 93 1018.8
20260905122401 22 331 8.0 16.1 0.00 0.00 0.00 92 1018.6
20260905121857 22 343 6.4 11.3 0.00 0.00 0.00 92 1018.6
20260905121353 22 26 11.3 12.9 0.00 0.00 0.00 92 1018.6
20260905120852 21 316 6.4 11.3 0.00 0.00 0.00 92 1018.5
20260905120351 21 339 4.8 6.4 0.00 0.00 0.00 93 1018.6
20260905115847 21 282 4.8 6.4 0.00 0.00 0.00 94 1018.4
20260905115346 21 334 6.4 9.7 0.00 0.00 0.00 94 1018.4
20260905114841 21 297 6.4 9.7 0.00 0.00 0.00 93 1018.5
20260905114340 21 345 6.4 11.3 0.00 0.00 0.00 94 1018.4
20260905113839 21 318 4.8 11.3 0.00 0.00 0.00 94 1018.4
20260905113335 21 0 4.8 9.7 0.00 0.00 0.00 93 1018.1
20260905112830 21 318 6.4 9.7 0.00 0.00 0.00 93 1018.3
20260905112325 21 351 9.7 12.9 0.00 0.00 0.00 93 1018.3
20260905111821 21 353 4.8 9.7 0.00 0.00 0.00 92 1018.4